Weather History for Columbia, SC

Change the Weather History Date:

Friday, January 4, 2013

  Actual Average Record
Temperature  
Mean Temperature 45 °F 44 °F  
Max Temperature 56 °F 55 °F 78 °F (1950)
Min Temperature 33 °F 33 °F 13 °F (1918)
Degree Days  
Heating Degree Days 20 21  
Month to date heating degree days 59 84  
Since 1 July heating degree days 899 1094  
Cooling Degree Days 0 0  
Month to date cooling degree days 0 0  
Year to date cooling degree days 0 0  
Growing Degree Days 0 (Base 50)    
Moisture  
Dew Point 33 °F    
Average Humidity 68    
Maximum Humidity 100    
Minimum Humidity 35    
Precipitation  
Precipitation 0.00 in 0.12 in 0.83 in (1889)
Month to date precipitation 0.28 0.44  
Year to date precipitation 0.28 0.44  
Sea Level Pressure  
Sea Level Pressure 30.31 in    
Wind  
Wind Speed 2 mph (WNW)    
Max Wind Speed 10 mph    
Max Gust Speed 14 mph    
Visibility 6 miles    
Events Fog    
T = Trace of Precipitation, MM = Missing Value Source: NWS Daily Summary

Daily Weather History Graph

Daily Weather History Graph

Search for Another Location

Airport:

Trip Planner

Search our weather history database for the weather conditions in past years. The results will help you decide how hot, cold, wet, or windy it might be!

Date:

Astronomy

Jan. 04, 2013 Rise Set
Actual Time 7:30 AM EST 5:29 PM EST
Civil Twilight 7:02 AM EST 5:56 PM EST
Nautical Twilight 6:31 AM EST 6:27 PM EST
Astronomical Twilight 6:01 AM EST 6:58 PM EST
Moon No Moon Rise 11:33 AM EST (1/4)
Length of Visible Light 10h 53m
Length of Day
9h 58m
Waning Gibbous, 55% of the Moon is Illuminated
Jan 4
Waning Gibbous
Jan 4
Last Quarter
Jan 11
New
Jan 18
First Quarter
Jan 26
Full

Hourly Weather History & Observations

Time (EST) Temp. Windchill Dew Point Humidity Pressure Visibility Wind Dir Wind Speed Gust Speed Precip Events Conditions
12:56 AM 39.0 °F 36.8 °F 37.0 °F 93% 30.28 in 7.0 mi NNW 3.5 mph - N/A   Clear
1:56 AM 39.0 °F - 36.0 °F 89% 30.30 in 6.0 mi Calm Calm - N/A   Clear
2:56 AM 37.0 °F - 35.1 °F 93% 30.30 in 0.8 mi Calm Calm - N/A   Mostly Cloudy
3:19 AM 37.4 °F - 37.4 °F 100% 30.30 in 0.5 mi Calm Calm - N/A Fog Fog
3:56 AM 37.9 °F - 37.0 °F 97% 30.30 in 0.5 mi Calm Calm - N/A Fog Fog
4:56 AM 37.9 °F - 36.0 °F 93% 30.30 in 1.0 mi Calm Calm - N/A   Overcast
5:25 AM 37.4 °F - 35.6 °F 93% 30.29 in 0.5 mi Calm Calm - N/A Fog Fog
5:56 AM 36.0 °F - 35.1 °F 97% 30.30 in 0.2 mi Calm Calm - N/A Fog Fog
6:56 AM 35.1 °F - 34.0 °F 96% 30.32 in 0.2 mi Calm Calm - N/A Fog Fog
7:56 AM 34.0 °F 31.0 °F 33.1 °F 96% 30.34 in 0.1 mi WNW 3.5 mph - N/A Fog Fog
8:39 AM 33.8 °F - 33.8 °F 100% 30.35 in 0.2 mi Calm Calm - N/A Fog Fog
8:56 AM 34.0 °F - 33.1 °F 96% 30.35 in 0.2 mi Calm Calm - N/A Fog Fog
9:09 AM 35.6 °F - 33.8 °F 93% 30.36 in 0.2 mi Calm Calm - N/A Fog Fog
9:18 AM 35.6 °F - 33.8 °F 93% 30.36 in 0.8 mi Calm Calm - N/A   Mist
9:22 AM 35.6 °F - 33.8 °F 93% 30.36 in 1.5 mi Calm Calm - N/A   Scattered Clouds
9:33 AM 37.4 °F - 35.6 °F 93% 30.36 in 5.0 mi Calm Calm - N/A   Scattered Clouds
9:56 AM 39.0 °F - 36.0 °F 89% 30.36 in 6.0 mi Calm Calm - N/A   Scattered Clouds
10:56 AM 46.9 °F - 32.0 °F 56% 30.36 in 10.0 mi Calm Calm - N/A   Scattered Clouds
11:56 AM 48.9 °F - 30.9 °F 50% 30.33 in 10.0 mi Calm Calm - N/A   Scattered Clouds
12:56 PM 52.0 °F - 30.9 °F 45% 30.30 in 10.0 mi Calm Calm - N/A   Scattered Clouds
1:56 PM 55.0 °F - 30.9 °F 40% 30.27 in 10.0 mi WNW 8.1 mph - N/A   Scattered Clouds
2:56 PM 55.0 °F - 30.0 °F 38% 30.25 in 10.0 mi Variable 3.5 mph - N/A   Scattered Clouds
3:56 PM 55.9 °F - 28.9 °F 36% 30.25 in 10.0 mi West 5.8 mph - N/A   Scattered Clouds
4:56 PM 54.0 °F - 30.0 °F 40% 30.25 in 10.0 mi West 5.8 mph - N/A   Scattered Clouds
5:56 PM 50.0 °F - 30.9 °F 48% 30.26 in 10.0 mi West 3.5 mph - N/A   Scattered Clouds
6:56 PM 45.0 °F 41.8 °F 32.0 °F 60% 30.29 in 10.0 mi WNW 5.8 mph - N/A   Scattered Clouds
7:56 PM 42.1 °F 40.2 °F 33.1 °F 70% 30.30 in 10.0 mi West 3.5 mph - N/A   Scattered Clouds
8:56 PM 39.0 °F - 33.1 °F 79% 30.31 in 10.0 mi Calm Calm - N/A   Partly Cloudy
9:56 PM 37.0 °F - 32.0 °F 82% 30.32 in 10.0 mi Calm Calm - N/A   Partly Cloudy
10:56 PM 35.1 °F - 30.0 °F 82% 30.33 in 9.0 mi Calm Calm - N/A   Clear
11:56 PM 33.1 °F - 28.9 °F 85% 30.33 in 9.0 mi Calm Calm - N/A   Clear